星链-37169(STARLINK-37169)

导读

STARLINK-37169(NORAD编号68346)是美国太空探索技术公司(SpaceX)星链(Starlink)星座计划中的一颗低轨互联网通信卫星,属于第二代星链卫星,运行于近地轨道,主要为全球提供高速低时延卫星互联网接入服务,工作在Ku、Ka频段,服务覆盖消费端互联网接入与军方特殊通信需求。作为SpaceX大规模星座部署中的一员,它承担着扩展星链全球网络覆盖容量的任务,目前该卫星状态正常,遵循星链卫星离轨标准,任务结束后会再入大气层焚毁,减少空间碎片影响。

基本信息
目录编号:
68346
目录名称:
STARLINK-37169
国际标识:
2026-059AB
轨道中心:
EARTH
卫星名称:
星链-37169
卫星全名:
星链-37169(STARLINK-37169)
卫星状态:
在轨 (已飞行175 天)
发射日期:
2026-03-22 UTC
国别 :
美国 (US)
星等 :
--
该卫星已列入 空间交会检测服务 Space Conjunction Data Service (SCDS) ,当前飞行风险评估等级: 无高风险
轨道信息
数据来源 国际轨道数据
星历时间: 2026-09-13T09:23:01+0800
9小时前
查看轨道信息
半长轴: 6840.917km
偏心率: 0.0001459
轨道倾角: 53.158°
近地点辐角 90.806°
升交点赤经 190.766°
平近点角 269.311°
近地点: 461.781km
远地点: 463.779km
周期: 93.849分钟
每日圈数: 15.343745
详细信息
固有亮度:
5
最大亮度:
2.5
卫星平台:
Starlink V1.0
覆盖范围:
全球
运营商:
太空探索技术公司
运营商所在国:
美国
制造商(研发单位):
太空探索技术公司
制造商所在国:
美国
使用方式:
暂无
卫星简介
Starlink 计划是 SpaceX 推出的全球卫星互联网项目,通过发射低轨道卫星,为全球尤其是偏远地区提供高速、低延迟的互联网服务。自 2019 年起,Starlink 已部署数千颗卫星,旨在缩小全球数字鸿沟,推动互联网普及。该项目还为军事、航空等行业提供通信支持,带来广泛经济效益。
2D轨道图
3D轨道图
轨道高度分析图
轨道倾角分析图
轨道综合分析图
查看轨道综合分析图
交会数据列表
事件ID 空间交会对象 最接近时刻(TCA) 交会距离 交会风险概率(CRP) 交会风险指数(CRI) 操作
CDM_260910-164106-834606-935422
2026-09-10T
16:41:45+0000
1.560 km
极远距离
1.400913E-6 低风险 0.38
CDM_260906-193405-362706-834621
2026-09-06T
19:34:05+0000
2.945 km
极远距离
1.002089E-6 低风险 0.35
与全量物体交会距离演化趋势
与全量物体交会风险概率演化趋势